Location: Treviso
(45.6669°N, 12.2430°E)
Time: 15:06:49
(UTC+01:00)

Envisat - Pass Details

Date: 04 December 2022
Orbit: 763 x 765 km, 98.2° (Epoch: 02 February)

Event Time Altitude Azimuth Distance (km) Brightness Sun altitude
Rises 04:42:32 0° 11° (N) 3,244 6.3 -29.2°
Reaches altitude 10° 04:44:51 10° 10° (N) 2,313 5.5 -28.8°
Enters shadow 04:46:15 19° 8° (N) 1,771 4.9 -28.6°
